Regional Weather Roundup
Issued by NWS

Home | Current Version | Previous Version | Text Only | Print | Product List | Glossary On
Versions: 1 2 3 4 5 6 7 8 9 10 11 12 13 14 15 16 17 18 19 20 21 22 23 24 25
000
ASUS42 KTBW 190517
RWRFL
FLORIDA REGIONAL WEATHER ROUNDUP
NATIONAL WEATHER SERVICE TAMPA BAY RUSKIN FL
1200 AM EST FRI JAN 19 2018

NOTE: "FAIR" INDICATES FEW OR NO CLOUDS BELOW 12,000 FEET WITH NO
SIGNIFICANT WEATHER AND/OR OBSTRUCTIONS TO VISIBILITY.

FLZ001>010-012>015-112-114-115-190600-
PANHANDLE FLORIDA

CITY           SKY/WX    TMP DP  RH WIND       PRES   REMARKS
PENSACOLA      FAIR      30  18  60 N6        30.41S WCI  24
PENSACOLA NAS  FAIR      26  17  68 NW3       30.41S
MILTON NAS     FAIR      24  18  77 N3        30.40
CRESTVIEW      FAIR      24  18  77 CALM      30.41F
DUKE FIELD     CLEAR     23  17  77 CALM      30.39F
VALPARAISO     CLEAR     29  15  57 N6        30.39F WCI  22
MARY ESTHER    FAIR      25  21  83 N6        30.39F WCI  18
PANAMA CITY    FAIR      28  20  71 NW3       30.39F
TYNDALL AFB    FAIR      38  17  43 N7        30.39F WCI  33
APALACHICOLA   FAIR      29  23  78 NW3       30.39S

STATION/POSITION SKY/WX   TEMP    WIND        PRES    WAVE   SWELL
                          AIR SEA DIR/SP/G            HT/PER HT/PER
                          (F)     (DEG/KT/KT) (MB)    (FT/S) (FT/S)
29.2N   88.2W              51 69   30/  6/  8 1030.0F   2/ 4   2/ 5
28.8N   86.0W              53 69   40/  8/ 10 1028.5F   2/ 4   2/ 5
PANAMA CITY BEAC           36 53   30/  6/  8 1029.6F
TOWER C                    47      10/ 11/ 12 1029.1F

$$
FLZ011-016>038-118-127-128-134-139-239-190600-
NORTH FLORIDA

CITY           SKY/WX    TMP DP  RH WIND       PRES   REMARKS
MARIANNA       FAIR      28  20  71 CALM      30.39F
TALLAHASSEE    HAZE      27  21  78 CALM      30.38F VSB 1/4
PERRY          FAIR      29  23  78 CALM      30.39F
LIVE OAK       CLEAR     27  25  93 CALM      30.39S
CROSS CITY     FAIR      25  22  89 CALM      30.43F
LAKE CITY      FAIR      28  21  74 CALM      30.37R
GAINESVILLE    FAIR      28  22  78 CALM      30.39F
WILLISTON        N/A     30  25  80 CALM      30.38F
PALATKA        FAIR      28  28 100 CALM      30.37F
MAYPORT NAS    FAIR      32  28  85 SW3       30.36F
JACKSONVILLE   FAIR      31  24  75 CALM      30.36S
JAX NAS        FAIR      37  27  67 W5        30.37S WCI  33
JAX CECIL        N/A     25  23  93 MISG      30.37S
FERNANDINA BEA FAIR      32  28  86 CALM      30.34F
ST AUGUSTINE   FAIR      30  26  85 CALM      30.37F
PALM COAST     FAIR      31  30  96 CALM      30.37S

STATION/POSITION SKY/WX   TEMP    WIND        PRES    WAVE   SWELL
                          AIR SEA DIR/SP/G            HT/PER HT/PER
                          (F)     (DEG/KT/KT) (MB)    (FT/S) (FT/S)
SHELL POINT      NOT AVBL
KEATON BEACH               36      CALM  /  1 1028.4F
CEDAR KEY                  42     360/  4/  5 1028.8S
FERNANDINA                 36 47  180/  1/  2 1028.9F
30.7N   81.3W                 49                N/A     2/12   2/12
MAYPORT                    39 49  240/  3/  3 1028.1F
31.4N   80.9W              46 51  280/ 10/ 12 1027.4F   2/12   2/12
ST AUGUSTINE               39 49  260/  4/  4 1028.3F

$$
FLZ040-043>046-052-053-057-058-063-144-190600-
INTERIOR CENTRAL FLORIDA

CITY           SKY/WX    TMP DP  RH WIND       PRES   REMARKS
OCALA          FAIR      29  24  82 CALM      30.38S
LEESBURG       FAIR      38  29  70 SE3       30.38F
SANFORD        FAIR      37  28  70 CALM      30.37S
ORLANDO EXEC   FAIR      40  30  67 CALM      30.37F
ORLANDO INTL   FAIR      36  30  79 N5        30.37F WCI  32
KISSIMMEE      FAIR      39  29  67 N6        30.38F WCI  35
WINTER HAVEN   FAIR      40  30  67 NE7       30.38S WCI  35
LAKELAND       FAIR      36  28  75 NE5       30.37  WCI  32
BARTOW         FAIR      39  28  65 NE8       30.37F WCI  34
SEBRING        FAIR      41  36  83 N5        30.35S WCI  38
OKEECHOBEE     FAIR      41  36  81 N7        30.34R WCI  36

$$
FLZ041-047-054-059-064-141-147-190600-
EAST CENTRAL FLORIDA

CITY           SKY/WX    TMP DP  RH WIND       PRES   REMARKS
DAYTONA BEACH  FAIR      34  33  96 CALM      30.37F
DELAND         FAIR      32  28  86 CALM      30.37S
JFK SPACE CTR  FAIR      41  39  90 N6        30.33F WCI  38
CAPE CANAVERAL FAIR      45  39  79 NW9       30.32F WCI  41
PATRICK AFB    CLEAR     47  41  80 N15       30.34S WCI  40
MELBOURNE      FAIR      44  38  79 NW8       30.33F WCI  39
VERO BEACH     FAIR      42  39  89 NW9       30.32S WCI  37
FT PIERCE      FAIR      41  40  96 NW7       30.31F WCI  36
STUART         FAIR      46  43  87 NW6       30.32S WCI  43

STATION/POSITION SKY/WX   TEMP    WIND        PRES    WAVE   SWELL
                          AIR SEA DIR/SP/G            HT/PER HT/PER
                          (F)     (DEG/KT/KT) (MB)    (FT/S) (FT/S)
28.5N   80.2W              56 70  330/ 17/ 21 1026.4F   6/ 8   3/ 8
TRIDENT PIER               45 60  320/  9/ 12 1028.9F
28.4N   80.5W                 60                N/A     3/11   2/11
27.5N   80.2W                 64                N/A     6/11   2/11

$$
FLZ050-056-061-142-242-148-248-149-249-151-251-155-255-
160-260-190600-
WEST CENTRAL FLORIDA

CITY           SKY/WX    TMP DP  RH WIND       PRES   REMARKS
CRYSTAL RIVER  FAIR      30  28  93 CALM      30.38S
INVERNESS      FAIR      28  27  93 CALM      30.39S
BROOKSVILLE    FAIR      30  26  85 CALM      30.38F
CLEARWATER AIR FAIR      39  34  81 NE3       30.36F
ST PETE CLEARW FAIR      45  36  70 N7        30.36F WCI  41
TAMPA INTL     FAIR      42  33  70 NE5       30.38F WCI  39
TAMPA EXEC     FAIR      34  32  93 CALM      30.38F
PLANT CITY     FAIR      39  28  65 CALM      30.39F
MACDILL AFB    CLEAR     36  30  80 NE5       30.35F WCI  32
PETER O KNIGHT FAIR      41  32  70 NE5       30.37F WCI  38
ST PETERSBURG  FAIR      44  36  73 N8        30.35F WCI  39
SARASOTA       FAIR      41  34  76 NE6       30.34F WCI  37
VENICE           N/A     43  36  75 NE9       30.36F WCI  37

STATION/POSITION SKY/WX   TEMP    WIND        PRES    WAVE   SWELL
                          AIR SEA DIR/SP/G            HT/PER HT/PER
                          (F)     (DEG/KT/KT) (MB)    (FT/S) (FT/S)
27.3N   84.2W                 70                N/A     4/ 5
CLEARWATER BEACH           44 54   30/  6/  8 1028.4F
MIDDLE TAMPA BAY           47      20/ 12/ 14 1028.6F
VENICE                     43 57   30/  9/ 11 1027.8F

$$
FLZ066-069-070-075>078-162-262-165-265-190600-
SOUTHWEST FLORIDA AND KEYS

CITY           SKY/WX    TMP DP  RH WIND       PRES   REMARKS
PUNTA GORDA    FAIR      39  32  76 N6        30.36F WCI  35
FT MYERS       FAIR      46  36  68 N7        30.33F WCI  42
SOUTHWEST INTL FAIR      44  36  73 N6        30.34S WCI  41
NAPLES         FAIR      46  36  68 N7        30.32F WCI  42
MARCO ISLAND   FAIR      46  37  71 N7        30.33F WCI  42
IMMOKALEE      CLOUDY    39  37  93 N5        30.35R WCI  36
MARATHON       FAIR      56  47  71 N10       30.27F
KEY WEST NAS   FAIR      57  51  80 N16       30.28F
KEY WEST INTL  FAIR      57  49  74 N12       30.28F

STATION/POSITION SKY/WX   TEMP    WIND        PRES    WAVE   SWELL
                          AIR SEA DIR/SP/G            HT/PER HT/PER
                          (F)     (DEG/KT/KT) (MB)    (FT/S) (FT/S)
NAPLES                        61   20/  5/  8 1026.8S
DRY TORTUGAS               60      60/ 13/ 15 1025.7F
SAND KEY                   59                 1025.7F
MOLASSES REEF              55 71   10/ 16/ 18 1025.0F

$$
FLZ067-068-071>074-168-172>174-190600-
SOUTHEAST FLORIDA

CITY           SKY/WX    TMP DP  RH WIND       PRES   REMARKS
W PALM BEACH   FAIR      48  42  80 NW9       30.30F WCI  44
FT LAUDER-EXEC FAIR      50  45  83 NW7       30.29F
FT LAUDERDALE  MOCLDY    49  46  90 N8        30.28F
POMPANO BEACH  FAIR      51  47  86 NW8       30.29F
PEMBROKE PINES   N/A    N/A N/A N/A MISG      30.31F
OPA LOCKA      FAIR      50  45  83 N7        30.30S
MIAMI          MOCLDY    52  45  77 N8        30.29F
WEST KENDALL   FAIR      49  43  80 N10       30.28F WCI  45
HOMESTEAD      FAIR      51  49  94 NW8       30.27F

STATION/POSITION SKY/WX   TEMP    WIND        PRES    WAVE   SWELL
                          AIR SEA DIR/SP/G            HT/PER HT/PER
                          (F)     (DEG/KT/KT) (MB)    (FT/S) (FT/S)
PORT EVERGLADES            52     320/  9/ 12 1025.1F
VIRGINIA KEY               53 69  330/  7/ 10 1024.9F
LAKE WORTH                 50 72  330/  9/ 12 1026.9F
FOWEY ROCKS                57 72  350/ 15/ 17 1025.4F
SETTLEMENT POINT           62      30/ 11/ 12 1025.1F

$$





USA.gov is the U.S. government's official web portal to all federal, state and local government web resources and services.